Regional Weather Roundup
Issued by NWS Jackson, KY

Home | Current Version | Previous Version | Text Only | Print | Product List | Glossary On
Versions: 1 2 3 4 5 6 7 8 9 10 11 12 13 14 15 16 17 18 19 20 21 22 23 24 25 26 27 28 29 30 31 32 33 34 35 36 37 38 39 40 41 42 43 44 45 46 47 48 49 50
000
ASUS43 KJKL 052010
RWRJKL

EAST KENTUCKY HOURLY WEATHER ROUNDUP
NATIONAL WEATHER SERVICE JACKSON KY
400 PM EDT TUE MAY 05 2015

NOTE: "FAIR" INDICATES FEW OR NO CLOUDS BELOW 12,000 FEET WITH
NO SIGNIFICANT WEATHER AND/OR OBSTRUCTIONS TO VISIBILITY.

* THESE REPORTS ARE NOT UNDER NWS QUALITY CONTROL AND MAY NOT
  REPORT WEATHER SUCH AS PRECIPITATION AND FOG.

KYZ079-080-083-085-087-088-110-112-115-119-120-052100
...EASTERN KENTUCKY...

CITY           SKY/WX    TMP DP  RH WIND       PRES   REMARKS
JACKSON        MOSUNNY   79  49  34 NW6       30.26F
LONDON         SUNNY     83  47  28 VRB5      30.25F
SOMERSET*      SUNNY     79  46  31 CALM      30.26F
MONTICELLO*    MOSUNNY   83  52  34 CALM      30.27F
MIDDLESBORO*   MOSUNNY   82  52  35 NW3       30.25F
HARLAN APT*    PTCLDY    81  45  28 CALM      30.26F
HAZARD APT*    CLEAR     82  48  30 CALM      30.25F
BLACK MTN*       N/A     70  48  46 NW1         N/A
PIKEVILLE APT* SUNNY     79  52  38 CALM      30.26F
BIG SANDY*     PTCLDY   N/A N/A N/A S3        30.25F
MOREHEAD APT*  CLEAR     81  50  34 W9G16     30.27F
$$

KYZ035-036-041-042-044-050-067-078-099-052100
...CENTRAL KENTUCKY...

CITY           SKY/WX    TMP DP  RH WIND       PRES   REMARKS
MT STERLING*   MOSUNNY   81  55  41 W5        30.26F
FLEMING/MASON* SUNNY     82  54  36 SW8       30.25F
DANVILLE*      PTSUNNY   79  55  44 N3        30.26F
RICHMOND*      SUNNY     81  52  36 W9        30.25F
LEXINGTON      MOSUNNY   82  54  37 W6        30.25F
FRANKFORT      CLOUDY    80  53  39 CALM      30.22F
$$

KYZ091>093-OHZ055-061-077-WVZ005-015-034-035-042-052100
...SOUTHERN OHIO/WEST VIRGINIA...

CITY           SKY/WX    TMP DP  RH WIND       PRES   REMARKS
COVINGTON      MOSUNNY   80  52  37 SW8G16    30.22F
COLUMBUS       PTSUNNY   79  56  45 CALM      30.21F
DAYTON         PTSUNNY   81  54  39 W14       30.22F
WILMINGTON     MOSUNNY   81  53  37 S14       30.22F
HUNTINGTON     PTSUNNY   80  51  36 W9        30.22F
CHARLESTON     MOSUNNY   85  51  31 W3G16     30.22F
PINEVILLE*     SUNNY     84  51  32 MISG      30.31F
BECKLEY        CLOUDY    74  48  39 W3        30.31F
BLUEFIELD      CLOUDY    77  46  33 N3        30.32F
$$

VAZ002-007-008-TNZ017-027-036-066-071-052100
...SOUTHWEST VIRGINIA/EAST TENNESSEE...

CITY           SKY/WX    TMP DP  RH WIND       PRES   REMARKS
WISE*          CLOUDY    75  43  31 CALM      30.33F
JONESVILLE*    PTCLDY    82  48  30 W3        30.28F
ABINGDON*      SUNNY     81  46  28 SW5       30.28F
BRISTOL        MOSUNNY   82  46  28 E3        30.26F
KNOXVILLE      MOSUNNY   82  52  35 N6        30.23F
OAK RIDGE      SUNNY     85  52  32 VRB3      30.25F
CROSSVILLE     CLOUDY    77  49  37 VRB5      30.28F
NASHVILLE      PTSUNNY   86  50  28 VRB5      30.22F
$$

...KEY TO REMARKS...
VSB - VISIBILITY IN MILES
WCI - WIND CHILL INDEX
HX  - HEAT INDEX

$$


USA.gov is the U.S. government's official web portal to all federal, state and local government web resources and services.